Regional Weather Roundup
Issued by NWS

Home | Current Version | Previous Version | Text Only | Print | Product List | Glossary Off
Versions: 1 2 3 4 5 6 7 8 9 10 11 12 13 14 15 16 17 18 19 20 21 22 23 24 25 26 27 28 29 30 31 32 33 34 35 36 37 38 39 40 41 42 43 44 45 46 47 48 49 50

000
ASUS43 KDTX 280801
RWRMI
MICHIGAN HOURLY REGIONAL WEATHER ROUNDUP
NATIONAL WEATHER SERVICE DETROIT/PONTIAC MI
300 AM EST TUE FEB 28 2017

NOTE: "FAIR" INDICATES FEW OR NO CLOUDS BELOW 12,000 FEET WITH NO
SIGNIFICANT WEATHER AND/OR OBSTRUCTION TO VISIBILITY.

MIZ047>049-052>055-059>063-066>070-074>076-081>083-280900-
SOUTHEAST LOWER MICHIGAN

CITY           SKY/WX    TMP DP  RH WIND       PRES   REMARKS
ADRIAN         FOG       35  35 100 CALM      30.15F VSB 1
ALMA           CLOUDY    36  33  89 SE3       30.12S
ANN ARBOR      PTCLDY    37  37 100 SE3       30.16S FOG
BAD AXE        CLEAR     34  32  90 S5        30.17F WCI  30
CARO           PTCLDY    36  33  90 E3        30.15F
DETROIT CITY   CLEAR     36  35  96 SE3       30.17F
DETROIT        CLOUDY    37  36  96 CALM      30.17F FOG
FLINT          PTCLDY    37  35  92 S7        30.15F WCI  32
GROSSE ILE     CLOUDY    37  35  95 SE5       30.16F WCI  33
HILLSDALE      CLOUDY    37  37 100 SE8       30.11F FOG     WCI  31
HOWELL         CLOUDY    39  38  94 S9        30.14S FOG     WCI  33

CITY           SKY/WX    TMP DP  RH WIND       PRES   REMARKS
JACKSON        CLOUDY    40  38  93 S10       30.12F FOG     WCI  33
LAMBERTVILLE   MOCLDY    38  36  94 SE3       30.15S FOG
LANSING        CLOUDY    40  35  83 S9        30.13R WCI  34
LAPEER         FAIR      36  35  96 SE5       30.16F FOG     WCI  32
MASON          CLOUDY    39  38  95 S10       30.13R FOG     WCI  32
MONROE         PTCLDY    37  37 100 SE3       30.16S FOG
MT. CLEMENS    PTCLDY    33  33 100 E6        30.15F WCI  28
PONTIAC        CLOUDY    39  36  89 SE8       30.14F FOG     WCI  33
PORT HOPE        N/A     38  32  79 S5        30.15F WCI  34
PORT HURON     CLEAR     30  30 100 CALM      30.19F FOG
TRI CITIES     PTCLDY    38  34  85 S8        30.14F WCI  32
MIDLAND        CLOUDY    39  32  77 SE3       30.12F
TROY           PTCLDY    38  35  90 CALM      30.17F FOG
SAGINAW HB     PTCLDY    36  32  87 SE7       30.13F WCI  30
$$
MIZ043>046-050>051-056>058-064>065-071>073-077>080-280900-
SOUTHWEST LOWER MICHIGAN

CITY           SKY/WX    TMP DP  RH WIND       PRES   REMARKS
BATTLE CREEK   PTCLDY    40  38  93 SE8       30.09F WCI  34
BENTON HARBOR  CLOUDY    45  39  79 SE12      30.01F
BIG RAPIDS     CLOUDY    29  27  90 CALM      30.08F
COLDWATER      CLOUDY    40  40 100 SE9       30.09F FOG     WCI  35
FREMONT        FAIR      39  33  80 SE6       30.06F WCI  34
HOLLAND        CLOUDY    43  37  79 SE9       30.05F
GRAND RAPIDS   MOCLDY    40  36  86 SE7       30.07F
IONIA          FAIR      37  35  94 SE6       30.09F WCI  32
KALAMAZOO      MOCLDY    41  37  86 SE5       30.08F FOG
LUDINGTON      CLOUDY    39  34  81 SE6       30.03F WCI  35
MARSHALL       CLOUDY    40  39  97 S6        30.10F FOG
MOUNT PLEASANT CLOUDY    36  32  86 CALM      30.10F
MUSKEGON       CLOUDY    42  36  79 SE8       30.05F
SOUTH HAVEN    CLOUDY    43  40  87 SE8       30.03F
$$
MIZ016>042-280900-
NORTHERN LOWER MICHIGAN

CITY           SKY/WX    TMP DP  RH WIND       PRES   REMARKS
ALPENA         CLEAR     28  26  92 CALM      30.12F
BEAVER ISLAND  CLOUDY    34  28  80 SE6       30.04F WCI  29
BELLAIRE       CLOUDY    26  25  96 CALM      30.08F
CADILLAC       CLOUDY    28  26  90 CALM      30.05F
CHARLEVOIX     CLEAR     31  25  77 SE3       30.08F
FRANKFORT      PTCLDY    38  32  76 SE7       30.03F WCI  33
GAYLORD        PTCLDY    28  20  71 S3        30.06F
GRAYLING       MOCLDY    28  24  84 CALM      30.09F
HARBOR SPRINGS CLEAR     29  24  78 NE5       30.06F WCI  24
HOUGHTON LAKE  PTCLDY    30  25  81 SE3       30.10F
MANISTEE       CLOUDY    35  29  78 E6        30.04F WCI  30
OSCODA         PTCLDY    33  30  90 S3        30.13F
PELLSTON       CLEAR     21  18  88 CALM      30.07F
ROGERS CITY    CLEAR     33  28  79 S9        30.10F WCI  26
TRAVERSE CITY  PTCLDY    36  25  64 CALM      30.05F
$$
MIZ007>008-015-280900-
EASTERN UPPER MICHIGAN

CITY           SKY/WX    TMP DP  RH WIND       PRES   REMARKS
KINROSS        PTCLDY    23  22  96 SE6       30.08F WCI  16
MACKINAC ISLAN CLEAR     31  25  78 S8        30.06F WCI  24
NEWBERRY       CLOUDY    29  24  81 SE5       30.03F WCI  24
S. S. MARIE    PTCLDY    25  21  85 E5        30.08F WCI  19
MUNISING         N/A     35  32  88 S8        29.98F WCI  29
$$
MIZ004>006-011>014-085-280900-
CENTRAL UPPER MICHIGAN

CITY           SKY/WX    TMP DP  RH WIND       PRES   REMARKS
MANISTIQUE     CLOUDY    32  31  98 SE3       30.02F
ESCANABA       CLOUDY    33  32  96 E3        29.99F FOG
MENOMINEE      CLOUDY    35  33  92 S7        29.99F WCI  29
SAWYER-GWINN   CLOUDY    29  27  93 S6        29.96F WCI  23
$$
MIZ001>003-009>011-084-280900-
WESTERN UPPER MICHIGAN

CITY           SKY/WX    TMP DP  RH WIND       PRES   REMARKS
IRON MOUNTAIN  CLOUDY    30  25  81 SE5       29.94F WCI  25
HOUGHTON       CLOUDY    30  21  69 NW6       29.90F WCI  24
COPPER HARBOR    N/A     31  23  72 W7        29.92F WCI  24
IRONWOOD       CLOUDY    35  26  69 S10       29.84F WCI  27
$$

ABBREVIATIONS USED IN REMARKS
   TC - TEMPERATURE IN CELSIUS
  WCI - WIND CHILL INDEX
   HX - HEAT INDEX
  VSB - VISIBILITY





USA.gov is the U.S. government's official web portal to all federal, state and local government web resources and services.